Location: Newark
(49.5647°N, 8.2922°E)
Time: 09:02:33
(UTC+00:00)

Transit 2A - Pass Details

Date: 26 February 2020
Orbit: 597 x 962 km, 66.7° (Epoch: 08 April)

Event Time Altitude Azimuth Distance (km) Brightness Sun altitude
Rises 22:04:56 0° 304° (NW) 3,175 9.9 -44.6°
Enters shadow 22:07:09 - 289° (WNW) 2,659 9.2 -44.8°
Reaches altitude 10° 22:10:04 10° 260° (W) 2,365 - -45.0°
Maximum altitude 22:10:28 10° 256° (WSW) 2,368 - -45.0°
Drops below altitude 10° 22:10:52 10° 252° (WSW) 2,383 - -45.1°
Sets 22:16:21 0° 209° (SSW) 3,430 - -45.5°
